Weather History for KGCN - January, 2013

Change the Weather History Date:

Saturday, January 26, 2013

  Actual Average Record
Temperature  
Mean Temperature 40 °F -  
Max Temperature 42 °F 42 °F 61 °F (1982)
Min Temperature 37 °F 15 °F 3 °F (2004)
Degree Days  
Heating Degree Days 26    
Moisture  
Dew Point 38 °F    
Average Humidity 92    
Maximum Humidity 100    
Minimum Humidity 87    
Precipitation  
Precipitation 0.20 in - - ()
Sea Level Pressure  
Sea Level Pressure 29.92 in    
Wind  
Wind Speed 7 mph (SW)    
Max Wind Speed 16 mph    
Max Gust Speed 23 mph    
Visibility 4 miles    
Events Rain    
Averages and records for this station are not official NWS values.
T = Trace of Precipitation, MM = Missing Value Source: NWS Daily Summary

Daily Weather History Graph

Daily Weather History Graph

Search for Another Location

Airport or City:

Trip Planner

Search our weather history database for the weather conditions in past years. The results will help you decide how hot, cold, wet, or windy it might be!

Date:

Astronomy

Jan. 26, 2013 Rise Set
Actual Time 7:33 AM MST 5:49 PM MST
Civil Twilight 7:05 AM MST 6:17 PM MST
Nautical Twilight 6:34 AM MST 6:47 PM MST
Astronomical Twilight 6:04 AM MST 7:18 PM MST
Moon 5:46 PM MST (1/26) 6:54 AM MST (1/26)
Length of Visible Light 11h 11m
Length of Day
10h 16m
Full, 100% of the Moon is Illuminated
Jan 26
Full
Jan 26
Full
Feb 3
Last Quarter
Feb 10
New
Feb 17
First Quarter

Hourly Weather History & Observations

Time (MST) Temp. Windchill Dew Point Humidity Pressure Visibility Wind Dir Wind Speed Gust Speed Precip Events Conditions
12:37 AM 39.2 °F 35.9 °F 37.4 °F 93% 30.16 in 4.0 mi SSE 4.6 mph - 0.05 in Rain Rain
12:54 AM 39.9 °F - 37.9 °F 93% 30.06 in 5.0 mi Calm Calm - 0.07 in Rain Light Rain
1:12 AM 39.2 °F - 37.4 °F 93% 30.16 in 4.0 mi Calm Calm - N/A Rain Light Rain
1:42 AM 39.2 °F 37.0 °F 37.4 °F 93% 30.14 in 6.0 mi ENE 3.5 mph - N/A Rain Light Rain
1:54 AM 39.0 °F 34.8 °F 37.0 °F 93% 30.02 in 6.0 mi East 5.8 mph - N/A Rain Rain
2:54 AM 37.9 °F - 36.0 °F 93% 30.00 in 5.0 mi Calm Calm - 0.00 in Rain Light Rain
3:54 AM 37.9 °F 32.7 °F 35.1 °F 89% 29.96 in 5.0 mi ENE 6.9 mph - 0.00 in Rain Light Rain
4:54 AM 37.0 °F 31.6 °F 35.1 °F 93% 29.95 in 7.0 mi NE 6.9 mph - N/A Rain Light Rain
5:54 AM 37.0 °F 31.0 °F 35.1 °F 93% 29.94 in 10.0 mi NE 8.1 mph - N/A Rain Light Rain
6:15 AM 37.4 °F 30.8 °F 35.6 °F 93% 30.01 in 10.0 mi ENE 9.2 mph - N/A   Overcast
6:54 AM 37.0 °F 34.5 °F 35.1 °F 93% 29.93 in 10.0 mi NE 3.5 mph - N/A   Overcast
7:54 AM 39.0 °F 35.7 °F 36.0 °F 89% 29.89 in 10.0 mi East 4.6 mph - N/A   Overcast
8:54 AM 39.0 °F 34.8 °F 36.0 °F 89% 29.91 in 5.0 mi East 5.8 mph - N/A Rain Light Rain
9:54 AM 39.0 °F 35.7 °F 39.0 °F 100% 29.91 in 3.0 mi East 4.6 mph - N/A Rain Light Rain
10:54 AM 41.0 °F 38.0 °F 41.0 °F 100% 29.88 in 5.0 mi ESE 4.6 mph - 0.00 in Rain Light Rain
11:01 AM 41.0 °F 38.0 °F 41.0 °F 100% 29.97 in 5.0 mi ESE 4.6 mph - 0.00 in Rain Light Rain
11:24 AM 42.8 °F 41.1 °F 41.0 °F 93% 29.97 in 5.0 mi Variable 3.5 mph - 0.00 in Rain Light Rain
11:54 AM 42.1 °F 39.2 °F 39.9 °F 92% 29.86 in 4.0 mi South 4.6 mph - 0.00 in Rain Light Rain
12:49 PM 42.8 °F 38.6 °F 39.2 °F 87% 29.92 in 2.5 mi SW 6.9 mph - N/A Rain Rain
12:54 PM 42.1 °F 38.4 °F 39.9 °F 92% 29.82 in 2.5 mi Variable 5.8 mph - N/A Rain Rain
1:05 PM 42.8 °F 38.6 °F 39.2 °F 87% 29.91 in 3.0 mi SSW 6.9 mph - 0.00 in Rain Light Rain
1:16 PM 42.8 °F 37.0 °F 39.2 °F 87% 29.90 in 2.5 mi SSW 10.4 mph 17.3 mph 0.02 in Rain Rain
1:20 PM 42.8 °F 36.6 °F 39.2 °F 87% 29.90 in 3.0 mi SW 11.5 mph 17.3 mph 0.02 in Rain Rain
1:54 PM 42.1 °F 35.7 °F 39.0 °F 89% 29.80 in 3.0 mi SSW 11.5 mph 19.6 mph 0.03 in Rain Light Rain
2:01 PM 42.8 °F 37.0 °F 39.2 °F 87% 29.89 in 3.0 mi SSW 10.4 mph - 0.00 in Rain Light Rain
2:32 PM 42.8 °F 35.1 °F 39.2 °F 87% 29.88 in 3.0 mi SSW 16.1 mph 23.0 mph 0.00 in Rain Rain
2:54 PM 42.1 °F 34.9 °F 39.9 °F 92% 29.80 in 4.0 mi SSW 13.8 mph 20.7 mph 0.00 in Rain Light Rain
3:05 PM 42.8 °F 36.2 °F 39.2 °F 87% 29.89 in 1.8 mi WSW 12.7 mph 20.7 mph 0.00 in Rain Rain
3:28 PM 41.0 °F 33.5 °F 39.2 °F 93% 29.89 in 1.2 mi SW 13.8 mph - 0.02 in Rain Rain
3:32 PM 41.0 °F 34.7 °F 39.2 °F 93% 29.89 in 2.0 mi SW 10.4 mph - 0.03 in Rain Rain
3:36 PM 41.0 °F 35.8 °F 39.2 °F 93% 29.89 in 3.0 mi SW 8.1 mph - 0.03 in Rain Light Rain
3:46 PM 42.8 °F 38.6 °F 39.2 °F 87% 29.88 in 4.0 mi SW 6.9 mph - 0.03 in Rain Light Rain
3:54 PM 42.1 °F 38.4 °F 39.9 °F 92% 29.80 in 4.0 mi WSW 5.8 mph - 0.03 in Rain Light Rain
4:03 PM 42.8 °F 38.0 °F 39.2 °F 87% 29.88 in 2.5 mi SW 8.1 mph - 0.00 in Rain Light Rain
4:17 PM 42.8 °F 37.0 °F 41.0 °F 93% 29.88 in 3.0 mi SW 10.4 mph - 0.00 in Rain Light Rain
4:26 PM 42.8 °F 36.6 °F 41.0 °F 93% 29.88 in 1.8 mi WSW 11.5 mph - 0.00 in Rain Rain
4:35 PM 42.8 °F 37.5 °F 39.2 °F 87% 29.88 in 1.2 mi WSW 9.2 mph 16.1 mph N/A Rain Rain
4:41 PM 42.8 °F 37.0 °F 39.2 °F 87% 29.88 in 2.0 mi WSW 10.4 mph 17.3 mph N/A Rain Rain
4:45 PM 42.8 °F 37.5 °F 39.2 °F 87% 29.89 in 3.0 mi WSW 9.2 mph - N/A Rain Light Rain
4:54 PM 42.1 °F 35.7 °F 39.9 °F 92% 29.80 in 6.0 mi WSW 11.5 mph - N/A Rain Light Rain
5:54 PM 41.0 °F 35.8 °F 39.9 °F 96% 29.82 in 4.0 mi WSW 8.1 mph - N/A Rain Light Rain
6:54 PM 41.0 °F 34.7 °F 39.0 °F 93% 29.84 in 8.0 mi WSW 10.4 mph 18.4 mph 0.03 in Rain Light Rain
7:09 PM 41.0 °F 35.2 °F 39.2 °F 93% 29.93 in 6.0 mi WSW 9.2 mph - 0.01 in Rain Light Rain
7:37 PM 41.0 °F 35.2 °F 39.2 °F 93% 29.93 in 7.0 mi WSW 9.2 mph - 0.02 in Rain Light Rain
7:54 PM 41.0 °F 33.9 °F 37.9 °F 89% 29.85 in 8.0 mi WSW 12.7 mph 17.3 mph 0.02 in Rain Light Rain
8:07 PM 39.2 °F 32.5 °F 37.4 °F 93% 29.94 in 6.0 mi WSW 10.4 mph 20.7 mph 0.00 in Rain Light Rain
8:20 PM 39.2 °F 33.0 °F 37.4 °F 93% 29.94 in 6.0 mi WSW 9.2 mph - 0.00 in Rain Light Rain
8:54 PM 39.9 °F 33.4 °F 37.9 °F 93% 29.86 in 6.0 mi WSW 10.4 mph - 0.00 in Rain Light Rain
9:42 PM 39.2 °F 34.2 °F 37.4 °F 93% 29.95 in 3.0 mi WSW 6.9 mph - 0.02 in Rain Light Rain
9:54 PM 39.9 °F 32.9 °F 37.9 °F 93% 29.87 in 6.0 mi WSW 11.5 mph 19.6 mph 0.02 in Rain Light Rain
10:48 PM 39.2 °F 32.5 °F 37.4 °F 93% 29.96 in 1.8 mi WSW 10.4 mph - 0.00 in   Overcast
10:52 PM 39.2 °F 33.0 °F 37.4 °F 93% 29.96 in 0.8 mi WSW 9.2 mph - 0.00 in   Overcast
10:54 PM 39.9 °F 33.4 °F 37.9 °F 93% 29.87 in 0.8 mi SW 10.4 mph - 0.00 in   Overcast
11:16 PM 39.2 °F 32.5 °F 37.4 °F 93% 29.97 in 1.8 mi WSW 10.4 mph - 0.00 in Rain Light Rain
11:18 PM 39.2 °F 33.6 °F 37.4 °F 93% 29.97 in 4.0 mi WSW 8.1 mph - 0.00 in Rain Light Rain
11:29 PM 39.2 °F 32.0 °F 37.4 °F 93% 29.97 in 1.8 mi WSW 11.5 mph - 0.00 in   Overcast
11:36 PM 39.2 °F 32.5 °F 37.4 °F 93% 29.97 in 0.8 mi SW 10.4 mph - 0.00 in   Overcast
11:45 PM 39.2 °F 32.5 °F 37.4 °F 93% 29.98 in 1.5 mi WSW 10.4 mph - 0.00 in   Overcast
11:54 PM 39.0 °F 33.4 °F 37.9 °F 96% 29.88 in 0.8 mi WSW 8.1 mph - 0.00 in Rain Light Rain